Simultaneous Nadir Overpasses (SNOs) Predictions

Prediction of SNOs between FY3D and AQUA Satellite Orbit:

Table of predicted SNOs for the next 14.0 days since TLE Epoch: 8/29/2020
Index Date (FY3D) Time (FY3D) Lat,Lon (FY3D) SZA (FY3D ) Date (AQUA) Time (AQUA) Lat,Lon (AQUA) SZA (AQUA ) Distance(km) Time Diff (sec)
1 08/29/2020 19:50:25 55.40, 98.08 109.29 08/29/2020 19:51:21 55.41, 98.09 109.21 1.07 56
2 08/29/2020 20:38:53 -63.18, -89.23 78.31 08/29/2020 20:38:36 -63.18, -89.24 78.28 0.42 17
3 09/01/2020 12:06:54 55.05,-146.20 110.46 09/01/2020 12:07:56 55.05,-146.21 110.37 0.57 62
4 09/01/2020 12:55:24 -62.73, 26.29 77.00 09/01/2020 12:55:13 -62.73, 26.28 76.98 1.04 11
5 09/01/2020 13:35:35 75.77, -38.20 68.19 09/01/2020 13:34:23 76.29, -35.68 68.56 88.73 72
6 09/04/2020 04:23:50 53.15, -31.29 113.10 09/04/2020 04:24:57 53.16, -31.27 112.99 1.43 67
7 09/04/2020 05:11:54 -62.33, 141.88 75.74 09/04/2020 05:11:49 -62.32, 141.84 75.72 1.94 5
8 09/04/2020 05:56:12 80.55, 0.80 83.09 09/04/2020 05:54:59 80.96, -0.44 83.33 50.66 73
9 09/06/2020 20:40:17 52.85, 84.47 114.22 09/06/2020 20:41:30 52.85, 84.46 114.12 0.62 73
10 09/06/2020 21:28:45 -60.70,-103.48 73.28 09/06/2020 21:28:45 -60.70,-103.46 73.29 1.23 0
11 09/06/2020 22:16:33 70.27, 74.01 97.17 09/06/2020 22:15:20 70.29, 73.69 97.32 12.45 73
12 09/09/2020 13:45:13 -60.40, 12.22 72.12 09/09/2020 13:45:19 -60.40, 12.22 72.12 0.29 6
